Location: Battery Park City
(40.7115°N, 74.0163°W)
Time: 23:14:53
(UTC+00:00)

Cosmos 2333 Rocket - Pass Details

Date: 08 December 2019
Orbit: 837 x 864 km, 70.8° (Epoch: 24 January)

Event Time Altitude Azimuth Distance (km) Brightness Sun altitude
Rises 22:58:26 0° 238° (WSW) 3,411 6.8 -16.5°
Reaches altitude 10° 23:01:18 10° 251° (WSW) 2,484 6.0 -17.0°
Maximum altitude 23:05:59 26° 306° (NW) 1,648 4.1 -17.9°
Drops below altitude 10° 23:10:43 10° 1° (N) 2,508 4.5 -18.7°
Enters shadow 23:12:45 - 12° (NNE) 3,154 4.9 -19.1°
